CHECKMATE 6

导读

CHECKMATE 6是美国于2023年4月2日发射的军用卫星,隶属于美国太空军空间发展局“扩增作战部队太空架构”,部署在近1000公里高度的近极地太阳同步轨道,可覆盖全球区域。作为美军新型低轨道卫星群的组成部分,它承担数据中继或导弹追踪任务,配备星间激光通信链路,具备传输速率高、抗干扰能力强等特点,助力增强美军全球军事通信与反导预警能力,是美国低轨军事星座部署的重要一环。

Basic Information
目录编号:
56165
目录名称:
CHECKMATE 6
国际标识:
2023-050D
轨道中心:
EARTH
卫星名称:
CHECKMATE 6
卫星全名:
--
卫星状态:
在轨 (已飞行1259 天)
发射日期:
2023-04-02 UTC
国别 :
美国 (US)
星等 :
--
This satellite is enrolled in the Space Conjunction Data Service (SCDS) and the current flight risk assessment level is: No High Risk
Orbit Information
数据来源 国际轨道数据
星历时间: 2026-09-12T01:56:47+0800
11小时前
查看轨道信息
半长轴: 7311.148km
偏心率: 0.0019778
轨道倾角: 81.008°
近地点辐角 72.355°
升交点赤经 348.529°
平近点角 287.977°
近地点: 918.551km
远地点: 947.471km
周期: 103.690分钟
每日圈数: 13.887512
Detailed Information
使用方式:
暂无
2D Orbit Map
3D Orbit Map
Orbit Altitude Analysis Chart
Orbit Inclination Analysis Chart
Orbit Comprehensive Analysis Chart
View Comprehensive Chart
Conjunction Data List
Event ID Objects TCA Miss Dist (km) Collision Risk Probability Collision Risk Index (CRI) Action
CDM_260912-075901-578005-616521
2026-09-12T
07:59:07+0000
2.663 km
极远距离
1.560808E-6 低风险 0.39
CDM_260913-160602-067005-616522
2026-09-13T
16:06:19+0000
2.652 km
极远距离
1.512369E-6 低风险 0.39
CDM_260913-022403-166405-616521
2026-09-13T
02:24:13+0000
2.626 km
极远距离
1.388957E-6 低风险 0.38
Miss Distance Evolution Trend with All Objects
Collision Probability Evolution Trend with All Objects